This is the latest recevied weather packets stored in our database for station/object F5OZP-13. If no packets are shown the sender has not sent any weather packets the latest 10 day(s).
| Time | Temp. | Humidity | Pressure | Rain* | Wind** | Luminosity | Snow |
|---|---|---|---|---|---|---|---|
| 1777804870 | 23.89° C | 99% | 1014.5 hPa | - | - | 0 W/m² | - |
| 1777804562 | 23.33° C | 99% | 1014.5 hPa | - | - | 18 W/m² | - |
| 1777804262 | 23.33° C | 99% | 1014.6 hPa | - | - | 3 W/m² | - |
| 1777803945 | 24.44° C | 99% | 1014.7 hPa | - | - | 6 W/m² | - |
| 1777803638 | 22.78° C | 99% | 1014.6 hPa | - | - | 14 W/m² | - |
| 1777803329 | 22.22° C | 99% | 1014.7 hPa | - | - | 11 W/m² | - |
| 1777803021 | 22.78° C | 99% | 1014.8 hPa | - | - | 35 W/m² | - |
| 1777802713 | 23.33° C | 99% | 1014.9 hPa | - | - | 0 W/m² | - |
| 1777802413 | 23.89° C | 99% | 1014.9 hPa | - | - | 0 W/m² | - |
| 1777802096 | 22.78° C | 99% | 1015 hPa | - | - | 8 W/m² | - |
| 1777801788 | 22.78° C | 99% | 1014.9 hPa | - | - | 0 W/m² | - |
| 1777801480 | 20.56° C | 99% | 1014.9 hPa | - | - | 0 W/m² | - |
| 1777801172 | 21.11° C | 99% | 1014.8 hPa | - | - | 0 W/m² | - |
| 1777800864 | 21.67° C | 99% | 1014.9 hPa | - | - | 0 W/m² | - |
| 1777800564 | 21.67° C | 99% | 1014.9 hPa | - | - | 0 W/m² | - |
| 1777800247 | 21.67° C | 99% | 1014.9 hPa | - | - | 0 W/m² | - |
| 1777799940 | 21.67° C | 99% | 1015 hPa | - | - | 0 W/m² | - |
| 1777799631 | 21.67° C | 99% | 1015 hPa | - | - | 0 W/m² | - |
| 1777799323 | 23.89° C | 99% | 1015.1 hPa | - | - | 0 W/m² | - |
| 1777799015 | 24.44° C | 99% | 1015 hPa | - | - | 0 W/m² | - |
| 1777798715 | 23.89° C | 99% | 1015 hPa | - | - | 0 W/m² | - |
| 1777798398 | 27.22° C | 99% | 1015 hPa | - | - | 0 W/m² | - |
| 1777798090 | 27.78° C | 99% | 1015 hPa | - | - | 0 W/m² | - |
| 1777797782 | 28.33° C | 99% | 1015 hPa | - | - | 0 W/m² | - |
| 1777797474 | 27.22° C | 99% | 1014.9 hPa | - | - | 0 W/m² | - |
* Rain since midnight (hover to see other rain measurements)
** Current wind speed in m/s (hover to see current wind gust speed)